Location: Slidell
(30.2789°N, 89.7378°W)
Time: 07:02:00
(UTC-06:00)

Daily predictions for brighter satellites

Satellite Brightness Start Highest point End
(mag) Time Altitude Azimuth Time Altitude Azimuth Time Altitude Azimuth
SPOT 3 Rocket 3.6 17:41:12 10° SSE 17:46:20 88° ENE 17:51:30 10° NNW
Cosmos 540 Rocket 4.1 17:42:07 10° SSE 17:46:47 36° E 17:51:29 10° NE
COSMO-SKYMED 1 2.7 17:42:49 10° NNE 17:47:05 56° E 17:51:19 10° S
Hubble Space Telescope 1.2 17:43:07 10° W 17:47:12 61° S 17:51:18 10° ESE
Cosmos 2228 Rocket 3.2 17:44:22 10° N 17:48:42 54° E 17:53:02 10° SSE
GMS 1 Rocket B 4.4 17:46:29 10° W 17:50:42 75° S 17:54:36 10° E
USA 215 4.1 17:45:26 10° E 17:50:49 28° NE 17:56:12 10° NNW
Cosmos 1300 4.0 17:49:02 10° NNE 17:51:54 20° ENE 17:54:44 10° SE
Cosmos 2150 Rocket 4.2 17:48:06 10° NNW 17:53:17 79° WSW 17:58:25 10° S
Thor Agena Rocket 4.4 17:48:17 10° N 17:53:22 55° WNW 17:58:24 10° SSW
Cosmos 1898 Rocket 4.3 17:50:13 10° NNW 17:55:28 59° WSW 18:00:40 10° S
Haruka 3.1 17:52:18 10° WSW 17:55:47 84° SSE 18:04:32 10° E
MONITOR-E 4.2 17:52:40 10° SSE 17:55:47 60° ENE 17:58:55 10° N
Cosmos 1726 3.1 17:56:43 10° NNE 17:59:54 25° E 18:03:04 10° SE
IDEFIX/ARIANE 42P 3.7 17:55:19 10° S 18:00:19 49° W 18:05:23 10° NNW
Meteor 2-2 Rocket 4.2 17:55:32 10° N 18:01:07 64° E 18:06:42 10° SSE
SEDSat Delta rocket 3.4 17:56:09 10° W 18:01:52 88° N 18:06:47 10° E
Cosmos 1125 Rocket 4.4 17:58:41 10° N 18:03:02 26° ENE 18:07:20 10° SE
Cosmos 1328 3.7 17:59:57 10° S 18:03:51 67° E 18:07:46 10° NNE
Cosmos 332 Rocket 4.4 18:01:34 10° SSW 18:06:16 58° WNW 18:11:03 10° N
Cosmos 990 Rocket 4.1 18:02:05 10° NNW 18:07:21 87° WSW 18:12:37 10° SSE
Cosmos 2058 3.1 18:10:22 10° SSE 18:14:18 46° E 18:18:13 10° NNE
SJ-6B 3.8 18:12:14 10° SE 18:15:33 26° ENE 18:18:58 10° NNE
Meteor 1-28 Rocket 3.1 18:13:24 10° N 18:17:07 89° WNW 18:20:50 10° SSW
Cosmos 1844 Rocket 2.6 18:13:30 10° NNW 18:19:10 76° ENE 18:24:47 10° SSE
GPS 2-04 Rocket1 3.5 18:15:01 10° WNW 18:19:15 54° SSW 18:23:24 10° SE
Abrixas 2.3 18:18:45 10° SW 18:21:40 89° NW 18:23:16 24° NE
Cosmos 2142 Rocket 4.5 18:19:01 10° N 18:25:26 80° E 18:31:46 10° S
Cosmos 1980 3.8 18:19:57 10° SSW 18:25:37 78° WNW 18:31:19 10° NNE
ALOS 3.3 18:25:18 10° ESE 18:28:53 22° ENE 18:32:29 10° NNE
Cosmos 44 3.8 18:27:35 10° SW 18:32:52 67° WNW 18:38:00 10° NNE
Atlas Centaur 2 2.3 18:28:12 10° W 18:32:55 47° SSW 18:36:07 14° SE
Aureole 2 Rocket 2.4 18:29:49 10° S 18:33:12 67° ESE 18:35:45 19° NNE
Cosmos 1515 Rocket 4.2 18:29:15 10° NNW 18:33:38 60° W 18:38:00 10° S
Cosmos 1703 3.5 18:30:48 10° SSE 18:34:30 43° E 18:36:39 22° NNE
Cosmos 2151 3.4 18:30:32 10° SSW 18:34:41 63° W 18:38:52 10° N
Cosmos 1805 Rocket 3.8 18:30:31 10° SSE 18:34:46 48° E 18:38:40 12° NNE
Cosmos 2333 Rocket 3.0 18:30:26 10° SW 18:35:53 51° WNW 18:41:23 10° N
FREGAT/IRIS 2.8 18:35:43 10° SSE 18:38:39 45° ENE 18:38:52 44° ENE
Cosmos 1356 Rocket 3.9 18:35:39 10° SSE 18:39:16 33° E 18:39:37 33° E
FENGYUN 3A 4.2 18:36:37 10° SE 18:41:19 32° ENE 18:46:02 10° N
Cosmos 1634 Rocket 4.4 18:36:53 10° NNW 18:42:59 65° W 18:49:03 10° S
Cosmos 1340 Rocket 2.7 18:42:08 10° S 18:46:06 86° W 18:49:44 12° N
Cosmos 1151 Rocket 3.5 18:43:11 10° NNW 18:47:23 62° W 18:51:37 10° S
BREEZE-M DEB (TANK) 4.2 18:43:10 10° NW 18:47:28 58° SW 18:57:12 10° SSE
Intelsat 5-1 Rocket 3.0 18:45:41 10° WSW 18:48:26 34° S 18:50:43 22° ESE
Iridium 4 Rocket 4.5 18:44:19 10° SE 18:47:00 24° ESE 18:47:00 24° ESE
Abrixas rocket 3.0 18:47:05 10° WNW 18:50:21 52° SW 18:52:04 24° SSE
Meteor 1-27 4.2 18:46:55 10° N 18:52:45 80° E 18:58:34 10° S
Cosmos 2219 Rocket 4.1 18:48:46 10° WSW 18:53:28 27° WNW 18:58:11 10° N
METEOR-M 4.1 18:50:45 10° SSE 18:56:06 86° WSW 19:01:29 10° NNW
Aureole 1 Rocket 4.4 18:55:05 10° SSE 18:57:32 27° SE 18:57:32 27° SE
FAST Rocket 4.4 18:56:34 10° S 18:59:30 64° SW 18:59:30 64° SW
Sich 1 3.0 18:56:35 10° S 19:00:57 63° E 19:01:42 53° NE
OTV 4 2.8 18:59:23 10° NW 19:00:26 17° NNW 19:00:26 17° NNW
Cosmos 1633 Rocket 3.1 18:58:18 10° S 19:02:25 55° ESE 19:02:25 55° ESE
Cosmos 2278 Rocket 2.0 18:57:22 10° NNW 19:03:04 77° ENE 19:08:43 10° SSE
Meteor 2-10 4.0 18:59:02 10° N 19:04:08 80° W 19:09:22 10° S
Resurs 01 Rocket 3.9 19:00:14 10° SSE 19:08:42 11° N 19:08:53 10° N
OAO 3 Rocket 3.3 19:02:22 10° WNW 19:07:13 69° SSW 19:08:27 47° SE
Cosmos 773 Rocket 4.3 19:03:12 10° S 19:07:24 43° SE 19:07:24 43° SE
Cosmos 1626 2.2 19:07:25 10° S 19:11:08 73° W 19:11:11 73° WNW
Milstar 3 3.3 19:11:03 10° W 19:17:31 58° SSW 19:21:24 30° SE
Cosmos 372 Rocket 4.0 19:14:36 10° NNW 19:19:42 76° WSW 19:24:46 10° S
Cosmos 2237 Rocket 4.1 19:18:07 10° WSW 19:22:42 25° WNW 19:27:19 10° N
H-2A ROCKET BODY 2.6 19:03:08 10° W 19:24:26 79° S 19:25:47 57° ESE
SL-16 R/B 2.6 19:20:45 10° SSW 19:26:19 61° WNW 19:28:55 31° N
Hubble Space Telescope 2.4 19:24:36 10° W 19:28:06 29° SSW 19:28:06 29° SSW
Helios 1B rocket 4.1 19:33:33 28° SSW 19:33:33 28° SSW 19:35:32 10° SSW
USA 215 3.4 19:28:59 23° SSE 19:33:22 73° SW 19:39:55 10° NW
Cosmos 1461 4.3 19:35:43 10° SW 19:39:11 36° WNW 19:39:11 36° WNW
SEDSat Delta rocket 4.5 19:43:09 10° W 19:47:07 37° SW 19:47:07 37° SW
Spot 2 Rocket 4.2 19:43:28 10° S 19:48:22 52° W 19:53:18 10° NNW
ALOS 4.2 20:02:14 10° SSW 20:06:08 26° W 20:10:03 10° NW
USA 229 DEB 4.2 20:08:08 10° SW 20:14:03 55° W 20:14:03 55° W
USA 229 4.2 20:08:13 10° SW 20:14:05 55° W 20:14:05 55° W
